Location: Chippewa Lake
(41.0698°N, 81.9010°W)
Time: 02:16:24
(UTC+00:00)

Meteor 1-23 Rocket - Pass Details

Date: 09 May 2021
Orbit: 838 x 887 km, 81.3° (Epoch: 24 June)

Event Time Altitude Azimuth Distance (km) Brightness Sun altitude
Exits shadow 06:17:34 75° 33° (NNE) 920 4.3 -30.2°
Drops below altitude 10° 06:22:55 10° 11° (N) 2,559 7.6 -29.9°
Sets 06:25:23 0° 11° (N) 3,503 8.6 -29.8°
